• En España
  • Lista de países
  • Para 7 días
  • Temperatura del agua
  • Mapa Satelital
  • El tiempo en el mapa
  • Informadores
  • user-avatar
    Iniciar sesión

    Tiempo cada hora Samora Correia

    Hoy, 25 Noviembre, Sábado

    Tiempo Temperatura Precipitaciones Viento Presión Humedad
    00:00 +15°C° 0 mm 1 mps 762 mmHg 76%
    01:00 +15°C° 0 mm 1 mps 762 mmHg 76%
    02:00 +14°C° 0 mm 1 mps 762 mmHg 76%
    03:00 +15°C° 0 mm 1 mps 762 mmHg 75%
    04:00 +15°C° 0 mm 1 mps 762 mmHg 74%
    05:00 +15°C° 0 mm 1 mps 762 mmHg 73%
    06:00 +15°C° 0 mm 1 mps 762 mmHg 72%
    07:00 +16°C° 0 mm 1 mps 763 mmHg 71%
    08:00 +16°C° 0 mm 1 mps 763 mmHg 69%
    09:00 +19°C° 0 mm 1 mps 763 mmHg 67%
    10:00 +20°C° 0 mm 1 mps 764 mmHg 64%
    11:00 +21°C° 0 mm 1 mps 764 mmHg 62%
    12:00 +21°C° 0 mm 1 mps 764 mmHg 62%
    13:00 +22°C° 0 mm 1 mps 764 mmHg 62%
    14:00 +22°C° 0 mm 1 mps 763 mmHg 62%
    15:00 +21°C° 0 mm 1 mps 763 mmHg 68%
    16:00 +19°C° 0 mm 1 mps 764 mmHg 74%
    17:00 +18°C° 0 mm 1 mps 764 mmHg 80%
    18:00 +18°C° 0 mm 1 mps 764 mmHg 84%
    19:00 +16°C° 0 mm 1 mps 764 mmHg 87%
    20:00 +15°C° 0 mm 1 mps 765 mmHg 90%
    21:00 +15°C° 0 mm 1 mps 765 mmHg 90%
    22:00 +15°C° 0 mm 1 mps 765 mmHg 90%
    23:00 +15°C° 0 mm 1 mps 766 mmHg 90%

    Mañana, 26 Noviembre, Domingo

    Tiempo Temperatura Precipitaciones Viento Presión Humedad
    00:00 +15°C° 0 mm 1 mps 766 mmHg 90%
    01:00 +15°C° 0 mm 1 mps 766 mmHg 90%
    02:00 +15°C° 0 mm 1 mps 766 mmHg 89%
    03:00 +14°C° 0 mm 2 mps 766 mmHg 88%
    04:00 +14°C° 0 mm 2 mps 766 mmHg 86%
    05:00 +14°C° 0 mm 2 mps 766 mmHg 85%
    06:00 +13°C° 0 mm 3 mps 767 mmHg 80%
    07:00 +14°C° 0 mm 3 mps 767 mmHg 76%
    08:00 +14°C° 0 mm 4 mps 768 mmHg 72%
    09:00 +17°C° 0 mm 3 mps 768 mmHg 66%
    10:00 +18°C° 0 mm 3 mps 768 mmHg 60%
    11:00 +20°C° 0 mm 3 mps 768 mmHg 55%
    12:00 +20°C° 0 mm 3 mps 768 mmHg 54%
    13:00 +21°C° 0 mm 3 mps 767 mmHg 52%
    14:00 +21°C° 0 mm 3 mps 767 mmHg 51%
    15:00 +20°C° 0 mm 3 mps 767 mmHg 54%
    16:00 +18°C° 0 mm 2 mps 767 mmHg 58%
    17:00 +17°C° 0 mm 2 mps 767 mmHg 61%
    18:00 +16°C° 0 mm 2 mps 768 mmHg 60%
    19:00 +16°C° 0 mm 3 mps 768 mmHg 60%
    20:00 +14°C° 0 mm 3 mps 768 mmHg 59%
    21:00 +14°C° 0 mm 3 mps 768 mmHg 58%
    22:00 +14°C° 0 mm 3 mps 768 mmHg 57%
    23:00 +14°C° 0 mm 3 mps 768 mmHg 56%

    Pasado mañana, 27 Noviembre, Lunes

    Tiempo Temperatura Precipitaciones Viento Presión Humedad
    00:00 +13°C° 0 mm 3 mps 768 mmHg 54%
    01:00 +13°C° 0 mm 3 mps 767 mmHg 52%
    02:00 +13°C° 0 mm 3 mps 767 mmHg 50%
    03:00 +13°C° 0,3 mm 3 mps 767 mmHg 52%
    04:00 +12°C° 0,3 mm 3 mps 767 mmHg 53%
    05:00 +12°C° 0,3 mm 3 mps 767 mmHg 55%
    06:00 +12°C° 0,1 mm 3 mps 767 mmHg 55%
    07:00 +12°C° 0,1 mm 3 mps 768 mmHg 56%
    08:00 +13°C° 0,1 mm 3 mps 768 mmHg 56%
    09:00 +14°C° 0 mm 3 mps 768 mmHg 54%
    10:00 +16°C° 0 mm 3 mps 767 mmHg 53%
    11:00 +17°C° 0 mm 3 mps 767 mmHg 51%
    12:00 +18°C° 0 mm 3 mps 767 mmHg 53%
    13:00 +19°C° 0 mm 2 mps 766 mmHg 54%
    14:00 +19°C° 0 mm 2 mps 766 mmHg 55%
    15:00 +18°C° 0 mm 2 mps 765 mmHg 58%
    16:00 +17°C° 0 mm 2 mps 765 mmHg 61%
    17:00 +16°C° 0 mm 2 mps 765 mmHg 63%
    18:00 +16°C° 0,1 mm 2 mps 765 mmHg 63%
    19:00 +16°C° 0,1 mm 2 mps 765 mmHg 64%
    20:00 +15°C° 0,1 mm 2 mps 765 mmHg 64%
    21:00 +14°C° 0,2 mm 3 mps 765 mmHg 65%
    22:00 +14°C° 0,2 mm 3 mps 765 mmHg 66%
    23:00 +14°C° 0,2 mm 3 mps 764 mmHg 67%

    28 Noviembre, Martes

    Tiempo Temperatura Precipitaciones Viento Presión Humedad
    00:00 +14°C° 0 mm 3 mps 764 mmHg 67%
    01:00 +14°C° 0 mm 3 mps 763 mmHg 67%
    02:00 +14°C° 0 mm 4 mps 763 mmHg 68%
    03:00 +14°C° 0 mm 4 mps 762 mmHg 69%
    04:00 +13°C° 0 mm 4 mps 762 mmHg 71%
    05:00 +13°C° 0 mm 4 mps 761 mmHg 73%
    06:00 +14°C° 0,1 mm 4 mps 761 mmHg 73%
    07:00 +14°C° 0,1 mm 4 mps 761 mmHg 73%
    08:00 +15°C° 0,1 mm 4 mps 760 mmHg 73%
    09:00 +15°C° 0,3 mm 4 mps 760 mmHg 72%
    10:00 +16°C° 0,3 mm 5 mps 760 mmHg 72%
    11:00 +17°C° 0,3 mm 5 mps 759 mmHg 71%
    12:00 +18°C° 1,1 mm 4 mps 758 mmHg 75%
    13:00 +18°C° 1,1 mm 4 mps 758 mmHg 79%
    14:00 +18°C° 1,1 mm 4 mps 757 mmHg 83%
    15:00 +17°C° 1,6 mm 4 mps 756 mmHg 87%
    16:00 +17°C° 1,6 mm 3 mps 756 mmHg 90%
    17:00 +17°C° 1,6 mm 3 mps 755 mmHg 93%
    18:00 +17°C° 0,8 mm 3 mps 755 mmHg 93%
    19:00 +16°C° 0,8 mm 3 mps 755 mmHg 94%
    20:00 +16°C° 0,8 mm 3 mps 755 mmHg 95%
    21:00 +16°C° 0,9 mm 3 mps 754 mmHg 95%
    22:00 +16°C° 0,9 mm 2 mps 754 mmHg 95%
    23:00 +16°C° 0,9 mm 2 mps 753 mmHg 95%

    29 Noviembre, Miércoles

    Tiempo Temperatura Precipitaciones Viento Presión Humedad
    00:00 +16°C° 0,3 mm 2 mps 753 mmHg 95%
    01:00 +16°C° 0,3 mm 2 mps 752 mmHg 95%
    02:00 +16°C° 0,3 mm 2 mps 752 mmHg 95%
    03:00 +16°C° 0,3 mm 2 mps 751 mmHg 95%
    04:00 +16°C° 0,3 mm 3 mps 751 mmHg 96%
    05:00 +16°C° 0,3 mm 3 mps 751 mmHg 96%
    06:00 +15°C° 0,1 mm 4 mps 751 mmHg 94%
    07:00 +15°C° 0,1 mm 4 mps 752 mmHg 92%
    08:00 +15°C° 0,1 mm 4 mps 752 mmHg 90%
    09:00 +15°C° 0 mm 5 mps 752 mmHg 85%
    10:00 +16°C° 0 mm 5 mps 752 mmHg 80%
    11:00 +16°C° 0 mm 5 mps 752 mmHg 75%
    12:00 +16°C° 0 mm 5 mps 752 mmHg 71%
    13:00 +16°C° 0 mm 5 mps 752 mmHg 67%
    14:00 +17°C° 0 mm 5 mps 752 mmHg 64%
    15:00 +15°C° 0 mm 5 mps 753 mmHg 66%
    16:00 +14°C° 0 mm 4 mps 753 mmHg 69%
    17:00 +13°C° 0 mm 4 mps 754 mmHg 71%
    18:00 +12°C° 0 mm 4 mps 754 mmHg 71%
    19:00 +11°C° 0 mm 4 mps 755 mmHg 71%
    20:00 +11°C° 0 mm 4 mps 755 mmHg 72%
    21:00 +10°C° 0 mm 4 mps 756 mmHg 72%
    22:00 +10°C° 0 mm 3 mps 756 mmHg 72%
    23:00 +9°C° 0 mm 3 mps 756 mmHg 71%

    30 Noviembre, Jueves

    Tiempo Temperatura Precipitaciones Viento Presión Humedad
    00:00 +9°C° 0 mm 3 mps 756 mmHg 71%
    01:00 +8°C° 0 mm 3 mps 757 mmHg 70%
    02:00 +8°C° 0 mm 3 mps 757 mmHg 69%
    03:00 +8°C° 0 mm 3 mps 757 mmHg 68%
    04:00 +7°C° 0 mm 3 mps 758 mmHg 68%
    05:00 +7°C° 0 mm 3 mps 758 mmHg 67%
    06:00 +7°C° 0 mm 3 mps 759 mmHg 64%
    07:00 +8°C° 0 mm 3 mps 759 mmHg 60%
    08:00 +8°C° 0 mm 3 mps 760 mmHg 56%
    09:00 +10°C° 0 mm 3 mps 760 mmHg 50%
    10:00 +12°C° 0 mm 3 mps 761 mmHg 43%
    11:00 +14°C° 0 mm 3 mps 761 mmHg 36%
    12:00 +14°C° 0 mm 3 mps 761 mmHg 34%
    13:00 +14°C° 0 mm 4 mps 761 mmHg 32%
    14:00 +15°C° 0 mm 4 mps 761 mmHg 30%
    15:00 +13°C° 0 mm 3 mps 762 mmHg 35%
    16:00 +11°C° 0 mm 3 mps 762 mmHg 40%
    17:00 +10°C° 0 mm 3 mps 763 mmHg 44%
    18:00 +9°C° 0 mm 3 mps 763 mmHg 48%
    19:00 +8°C° 0 mm 3 mps 764 mmHg 52%
    20:00 +8°C° 0 mm 3 mps 764 mmHg 56%
    21:00 +7°C° 0 mm 2 mps 764 mmHg 58%
    22:00 +7°C° 0 mm 2 mps 764 mmHg 59%
    23:00 +6°C° 0 mm 2 mps 765 mmHg 61%
    Mostrar más